Weather in Nuremberg

Germany     49°26′50″N   11°05′04″E
temp.,
°C
wind,
m/s
gust,
m/s
humid.,
%
clouds,
%
prec.,
mm/h
press.,
hPa
HPBL,
m
9 may, sun
sun923:00+11sse4106218 0.0 1015280
02:00+8sse387952 0.0 1015170
05:00+8se3782100 0.0 1014137
08:00+11se4970100 0.0 1013229
11:00+20sse584656 0.0 1011573
14:00+24sse573991 0.0 1010998
17:00+25se4642100 0.0 1008939
20:00+19se23645 0.0 100757
10 may, mon
mon1023:00+14e117463 0.0 100714
02:00+13e227520 0.0 100740
05:00+11ese3585100 0.0 100795
08:00+15sse3975100 0.0 1009288
11:00+22ssw01482 0.0 1008608
14:00+23nw3247100 0.0 10081499
17:00+20nnw5864100 0.1 1009670
20:00+17nw3673100 0.1 1008304
11 may, tue
tue1123:00+13nw3791100 0.6 1007243
02:00+12wnw3797100 0.6 1007259
05:00+12wnw5994100 0.0 1008528
08:00+11wnw3692100 0.0 1009365
11:00+12wnw3387100 0.0 1008476
14:00+15nw2277100 0.0 1007633
17:00+16nw3375100 0.1 1006742
20:00+14nw3788100 0.1 1006466
12 may, wed
wed1223:00+12nw4993100 0.4 1007542
02:00+11wnw4998100 2.1 1007530
05:00+11wnw4997100 6.5 1007579
08:00+10wnw4897100 11.8 1007500
11:00+11nw2697100 7.6 1008415
14:00+11nnw3693100 11.9 1008518
17:00+10nnw2695100 1.5 1008567
20:00+10wnw4897100 3.3 1009512
13 may, thu
thu1323:00+9wnw4997100 0.8 1009507
02:00+8wnw4997100 1.3 1009443
05:00+8wnw4997100 0.2 1008460
08:00+9wnw4996100 0.4 1008526
11:00+9nw3795100 0.3 1008571
14:00+11nnw3583100 1.3 1008828
17:00+10nne2490100 1.1 1009503
20:00+10ene1191100 1.3 100919